Showing default

LYRA-1, 62664

Orbit data source: Space-Track

LYRA-1, 62664 is a payload satellite owned by Echostar AU (AU) in SSO that was launched on Tue, 14 Jan 2025 UTC via an FALCON 9 launch vehicle from the Air Force Western Test Range (AFWTR). Payload-class satellites include a variety of spacecraft equipped with specific instruments for various scientific and technological missions. These include communications satellites like Starlink; space stations such as the ISS; scientific satellites like the Hubble; Earth observation satellites from companies like Planet Labs, Umbra, and HawkEye 360; GPS; miniature CubeSats for education and research; and military/defense satellites.

Loading next visibility...
Identifier
62664, 2025-009BH
Orbit
SSO
Country
Flag of AUAU / AUS
Related business
Manufacturer
Astro Digital
Mission
Operational Commercial Communications
Bus & Motor
CORVUS XL, Unknown motor
Mass
74 kg wet, 74 kg dry
Launch date (UTC)
2025-01-14 (9 months ago)
Launch vehicle
FALCON 9
Launch site
Air Force Western Test Range (AFWTR)
Object type
Payload
Rocket body
Debris
Shape & HBR
Box, 1.0 m
Radar Cross Section
0.425 m², Medium (>0.1 m² and < 1m²)

Expand to show TLE details & history
Last TLE update: 7 hours ago

TLE from 7 hours ago
0 LYRA-1
1 62664U 25009BH  25290.93416525  .00016845  00000-0  95470-3 0  9995
2 62664  97.4261   6.1856 0008968 319.7988  40.2580 15.13029239 41714
Epoch: 2025-10-17T22:25Z
TLE epoch observation values (Epoch: 2025-10-17T22:25:11.877Z)
Latitude
0.00006°
Longitude
3.21369°
Altitude
525.324 km
Speed
7.603 km/s
True Right ascension
00h 24m 44s
True Declination
0° 00' 00"
Sunlit
Object was in full shadow at epoch
Visualization orbit readout
Latitude
Unknown
Longitude
Unknown
Altitude
Unknown
Speed
Unknown
Apparent Right ascension
Unknown
Apparent Declination
Unknown
Sunlit
N/A
Visualization observer readout
Local Sidereal Time
00:12:51
Azimuth
Unknown
Elevation
Unknown
Doppler factor
Unknown
Orbital elements
Apogee altitude
530.134 km
Perigee altitude
517.754 km
Semi-major axis
6,902.081 km
Eccentricity
0.0009
Inclination
97.4261°
RAAN
6.1856°
Arg. of periapsis
319.7988°
True anomaly
40.32447°
Mean anomaly
40.258°
Eccentric anomaly
40.29123°
Mean motion
3.78506 °/min
Orbital period
95.11 mins
BSTAR
0.0009547
Loading maneuver chart data...
Computing Atmospheric mass density...
Loading historical data...
Loading historical data...
Loading historical data...
Loading historical data...
Loading historical data...
Loading historical data...
Loading historical data...

Documentation

Showing up to 5 results
|